Location: Newsoms
(36.6240°N, 77.1250°W)
Time: 14:18:29
(UTC-05:00)

Daily predictions for brighter satellites

Satellite Brightness Start Highest point End
(mag) Time Altitude Azimuth Time Altitude Azimuth Time Altitude Azimuth
Cosmos 2298 Rocket 4.3 17:12:51 10° S 17:17:56 49° ESE 17:23:02 10° NNE
DELTA 2 R/B (1) 3.8 17:12:30 10° WSW 17:17:59 66° SSE 17:23:32 10° ENE
Cosmos 1812 3.4 17:17:39 10° SSW 17:21:27 58° W 17:25:17 10° N
IRAS Rocket 4.2 17:16:35 10° SSE 17:22:01 68° ENE 17:27:28 10° N
ERS-2 3.9 17:21:47 10° E 17:23:26 13° ENE 17:25:04 10° NE
Cosmos 1943 Rocket 4.0 17:19:37 10° WSW 17:24:21 27° WNW 17:29:07 10° N
Cosmos 1937 Rocket 3.5 17:20:54 10° S 17:26:01 63° ESE 17:31:08 10° NNE
Cosmos 2112 Rocket 4.4 17:25:29 10° NNW 17:30:45 72° WSW 17:36:02 10° S
Meteor 1-4 Rocket 3.2 17:31:45 10° NNW 17:35:22 59° W 17:38:55 10° S
Cosmos 1666 3.8 17:32:46 10° NNE 17:35:48 23° ENE 17:38:48 10° SE
Meteor 1-12 Rocket 4.4 17:30:35 10° N 17:36:07 52° ENE 17:41:41 10° SSE
Cosmos 2279 Rocket 4.0 17:30:58 10° S 17:37:07 64° E 17:43:18 10° NNE
Cosmos 1455 Rocket 4.0 17:33:45 10° NNE 17:37:30 26° ENE 17:41:12 10° SE
Hubble Space Telescope 2.7 17:35:23 10° SW 17:38:37 22° S 17:41:51 10° ESE
Lacrosse 5 3.2 17:34:01 10° NW 17:38:49 45° SW 17:43:37 10° SSE
Cosmos 1607 4.0 17:34:34 10° NNW 17:41:02 63° ENE 17:47:22 10° SE
Cosmos 1544 Rocket 4.3 17:37:13 10° NNE 17:41:07 31° ENE 17:44:57 10° SE
YAOGAN 1 3.0 17:37:09 10° SE 17:41:10 39° ENE 17:45:13 10° N
Aureole 1 Rocket 4.2 17:36:47 10° N 17:42:35 57° ENE 17:49:58 10° SSE
BREEZE-M DEB (TANK) 2.7 17:41:10 10° WNW 17:43:31 77° SW 17:49:07 10° SE
CSL-04 Debris 4.2 17:38:39 10° SSE 17:44:02 88° WSW 17:49:28 10° NNW
IRS-1A Rocket 4.3 17:43:59 10° SSE 17:49:32 61° ENE 17:55:01 10° N
Delta 2 Rocket 3.9 17:49:58 10° W 17:55:29 79° S 17:59:19 17° E
COSMO-SKYMED 1 2.8 17:52:02 10° NNE 17:56:16 50° E 18:00:29 10° S
EO 1 Del DPAF 3.6 17:55:29 11° NNE 17:58:54 41° E 18:02:30 10° S
Cosmos 990 Rocket 4.3 17:54:38 10° SSW 17:59:43 67° WNW 18:04:52 10° NNE
Atlas Centaur 2 2.7 17:57:26 10° WSW 18:01:56 36° S 18:05:01 14° ESE
Cosmos 2150 Rocket 4.4 17:58:25 10° SSW 18:03:51 70° WNW 18:09:19 10° NNE
USA 116 3.6 18:01:01 10° N 18:04:15 61° WNW 18:07:19 10° SSW
Cosmos 1975 Rocket 4.1 18:01:24 10° SSW 18:05:42 48° W 18:10:04 10° N
Meteor 1-28 Rocket 4.4 18:03:27 10° N 18:07:01 43° WNW 18:10:35 10° SSW
Cosmos 1743 2.6 18:04:34 10° N 18:08:27 76° E 18:12:19 10° S
ATLAS CENTAUR R/B 4.3 18:06:48 10° WNW 18:09:53 21° WSW 18:13:05 10° SSW
SPOT 3 Rocket 3.7 18:06:28 10° SE 18:11:25 47° ENE 18:16:22 10° N
Cosmos 1697 Rocket 3.8 18:09:07 10° SSE 18:13:26 23° E 18:14:04 22° E
SMAP 4.4 18:09:15 10° S 18:13:39 43° W 18:18:06 10° NNW
SJ 16-02 1.9 18:11:05 10° SSE 18:15:04 35° E 18:16:16 30° ENE
FENGYUN 3A 3.8 18:10:42 10° SSE 18:15:53 51° ENE 18:21:04 10° N
Cosmos 1655 Rocket 4.3 18:10:14 10° N 18:16:36 75° W 18:22:57 10° S
Cosmos 2082 4.4 18:12:27 10° N 18:17:19 29° ENE 18:18:41 26° E
Cosmos 1975 4.1 18:16:17 10° NNW 18:20:07 43° W 18:23:57 10° SSW
CZ-4 R/B 2.6 18:17:04 10° S 18:20:41 41° W 18:24:24 10° NNW
ATLAS 2AS CENTAUR R/B 3.2 18:14:34 10° SW 18:22:14 73° WNW 18:29:53 12° NNE
ALOS 2.2 18:18:30 10° SSE 18:23:05 60° ENE 18:27:41 10° N
ISS -1.4 18:25:44 10° NNW 18:26:30 13° N 18:26:30 13° N
METEOR-M 4.4 18:24:04 10° S 18:29:23 72° WSW 18:34:44 10° NNW
Thor Agena Rocket 4.2 18:29:40 33° E 18:29:53 33° E 18:34:34 10° SSE
Cosmos 2219 3.8 18:27:27 10° NNW 18:32:57 59° WSW 18:38:27 10° S
Cosmos 2227 Rocket 2.3 18:27:48 10° N 18:33:20 50° ENE 18:38:41 10° SE
Cosmos 1536 Rocket 3.5 18:29:24 10° S 18:33:46 82° W 18:37:25 15° N
Cosmos 1271 Rocket 3.3 18:30:34 10° NNW 18:34:16 55° W 18:38:00 10° S
Abrixas rocket 4.0 18:31:50 10° WNW 18:34:29 22° NNW 18:34:47 22° NNW
NOAA 12 4.0 18:32:11 10° SSE 18:37:28 80° ENE 18:42:44 10° N
ATLAS 3B R/B 2.6 18:31:18 10° NNW 18:37:48 53° NE 18:41:12 27° ESE
Cosmos 2266 Rocket 3.8 18:35:12 10° N 18:41:17 82° E 18:47:26 10° S
Meteor 2-9 Rocket 4.0 18:37:09 10° N 18:42:43 88° E 18:48:06 10° S
NOSS 3-4 (A) 3.9 18:37:51 10° S 18:43:32 39° ESE 18:44:08 38° E
Cosmos 158 Rocket 3.8 18:38:28 10° NNW 18:43:33 64° ENE 18:48:26 10° SSE
NOSS 3-4 (C) 3.9 18:37:58 10° S 18:43:38 39° ESE 18:44:11 38° E
Cosmos 1025 Rocket 4.3 18:43:06 10° SSE 18:45:14 26° SSE 18:45:14 26° SSE
Cosmos 1980 Rocket 3.7 18:47:13 10° SSE 18:49:26 20° SE 18:49:26 20° SE
ERS-2 3.7 18:53:21 10° SSW 18:56:44 35° W 19:00:08 10° NNW
Cosmos 2297 Rocket 2.0 18:55:16 10° NNW 19:00:56 73° ENE 19:02:12 54° SE
Meteor 2-4 Rocket 4.5 18:56:13 10° SSW 19:01:33 49° WNW 19:06:47 10° N
Cosmos 1125 Rocket 3.8 18:56:20 10° SSW 19:01:36 67° WNW 19:03:51 34° N
Meteor 1-15 Rocket 4.2 18:55:44 10° N 19:01:40 74° E 19:07:33 10° SSE
DELTA 2 R/B (1) 3.5 18:58:58 10° W 19:04:31 67° N 19:04:55 65° NNE
Cosmos 1048 Rocket 4.0 19:09:11 10° NNW 19:14:29 85° WNW 19:14:29 85° WNW
Gbstr 26 Del rocket 4.2 19:09:18 10° SW 19:17:18 81° SE 19:18:24 67° ENE
Hubble Space Telescope 2.8 19:15:52 10° WSW 19:18:16 23° SSW 19:18:16 23° SSW
CENTAUR R/B 4.4 19:16:26 10° NNW 19:20:03 22° NNE 19:20:03 22° NNE
Cosmos 1656 4.5 19:25:17 10° SW 19:30:39 47° WNW 19:31:36 42° NW
USA 238 DEB 4.0 19:25:42 10° NW 19:32:46 68° WSW 19:36:06 34° S
USA 238 4.0 19:25:48 10° NW 19:32:52 69° WSW 19:36:03 35° S
Atlas Centaur 2 4.2 19:46:42 10° WSW 19:47:40 15° WSW 19:47:40 15° WSW
SJ 16-02 3.9 19:50:47 10° WSW 19:53:19 17° WNW 19:53:19 17° WNW
Cosmos 1697 Rocket 3.9 19:51:42 10° SW 19:55:52 38° W 19:55:52 38° W
NOSS 3-2 (A) 4.3 19:57:25 10° NW 20:03:56 65° WNW 20:03:56 65° WNW
ATLAS 3B R/B 4.3 20:22:49 10° WNW 20:27:59 25° WSW 20:28:37 25° WSW
